AirNav   Air Wisconsin Up To $57,000 Bonus
 
 1656 users online  

99F El Reno Airport
El Reno, Oklahoma, USA

GOING TO EL RENO?


FAA INFORMATION EFFECTIVE 09 SEPTEMBER 2021

Location

FAA Identifier: 99F
Lat/Long: 35-31-00.1870N 097-58-46.1790W
35-31.003117N 097-58.769650W
35.5167186,-97.9794942
(estimated)
Elevation: 1395 ft. / 425 m (estimated)
Variation: 07E (1985)
From city: 2 miles SW of EL RENO, OK
Time zone: UTC -5 (UTC -6 during Standard Time)
Zip code: 73036

Airport Operations

Airport use: Open to the public
Activation date: 02/1945
Control tower: no
ARTCC: FORT WORTH CENTER
FSS: MC ALESTER FLIGHT SERVICE STATION
NOTAMs facility: MLC (NOTAM-D service available)
Attendance: MON-FRI 0800-1700
Wind indicator: no
Segmented circle: no

Airport Communications

CTAF: 122.9
WX AWOS-3 at RQO (2.9 nm SW): 118.475 (405-262-0087)
WX AWOS-3 at RCE (8 nm E): 125.05 (405-354-2617)
WX AWOS-3 at HSD (14 nm E): 120.975 (405-283-9848)
WX ASOS at PWA (16 nm E): PHONE 405-798-2013
WX ASOS at OKC (20 nm E): PHONE 405-686-4711

Nearby radio navigation aids

VOR radial/distance  VOR name  Freq  Var
PWAr259/16.3WILEY POST VOR/DME113.4008E
IFIr167/17.4KINGFISHER VORTAC114.7009E
IRWr291/20.4WILL ROGERS VORTAC114.1007E

Airport Services

Airframe service: NONE
Powerplant service: NONE
Bottled oxygen: NONE
Bulk oxygen: NONE

Runway Information

Runway 17/35

Dimensions: 2600 x 100 ft. / 792 x 30 m
Surface: turf, in fair condition
RUNWAY 17  RUNWAY 35
Traffic pattern: rightleft
Obstructions: 26 ft. tree, 85 ft. from runway, 50 ft. right of centerline, 3:1 slope to clear18 ft. bldg, 150 ft. from runway, 8:1 slope to clear

Airport Ownership and Management from official FAA records

Ownership: Privately-owned
Owner: MARSHALL GIBSON
1821 W ELM
EL RENO, OK 73036
Phone 405-262-4880
AND MARK GIBSON.
Manager: MARSHALL GIBSON
PO BOX 880
EL RENO, OK 73036
Phone 405-262-4880
AND J. MARSHALL GIBSON AVIATION PRES.

Airport Operational Statistics

Aircraft operations: 10/year *
100% transient general aviation
* for 12-month period ending 14 November 2018

Additional Remarks

FOR CD CTC OKE CITY APCH AT 405-681-5683.

Instrument Procedures

There are no published instrument procedures at 99F.

Some nearby airports with instrument procedures:

KRQO - El Reno Regional Airport (3 nm SW)
KRCE - Clarence E Page Municipal Airport (8 nm E)
KHSD - Sundance Airport (14 nm E)
KPWA - Wiley Post Airport (16 nm E)
2O8 - Hinton Municipal Airport (18 nm W)
KOKC - Will Rogers World Airport (20 nm E)
 
Loc | Ops | Rwys | IFR | FBO | Links
Com | Nav | Svcs | Stats | Notes
Area around 99F (El Reno Airport)
 
Road maps at: MapQuest Bing Google
 
Aerial photo
WARNING: Photo may not be current or correct
Aerial photo of 99F (El Reno Airport)
The airport is difficult to see. It is located between the plowed field and the white (long) shed/building

Do you have a better or more recent aerial photo of El Reno Airport that you would like to share? If so, please send us your photo.

 
Sectional chart

 
Airport distance calculator
Flying to El Reno Airport? Find the distance to fly.

From to 99F

Sunrise and sunset
Times for 21-Sep-2021
 Local
(UTC-5)
 Zulu
(UTC)
Morning civil twilight06:5511:55
Sunrise07:2012:20
Sunset19:3000:30
Evening civil twilight19:5500:55

Current date and time
Zulu (UTC)  21-Sep-2021 18:17:47
Local (UTC-5)  21-Sep-2021 13:17:47
 
METAR
KRQO 
3nm SW 
211635Z AUTO 35022KT CLR 23/08 A3032 RMK AO2 PWINO T02290080
KRCE 
8nm E 
211635Z AUTO 01016KT 10SM CLR 22/08 A3030 RMK AO2
KHSD 
14nm E 
211630Z AUTO 01018G25KT 10SM CLR 23/08 A3030 RMK A01
KPWA 
16nm E 
211553Z 36017KT 10SM FEW120 22/08 A3028 RMK AO2 PK WND 02028/1525 SLP240 T02170078
TAF
KOKC 
20nm SE 
211120Z 2112/2212 01017G25KT P6SM SCT080 BKN150 FM220000 01009KT P6SM SKC
NOTAMs
Click for the latest NOTAMs
NOTAMs are issued by the DoD/FAA and will open in a separate window not controlled by AirNav.

 

 
 

Would you like to see your business listed on this page?

 If your business provides an interesting product or service to pilots, flight crews, aircraft, or users of the El Reno Airport, you should consider listing it here.  To start the listing process, click on the button below
 
Add a business
 

Other Pages about El Reno Airport

Update a link
 
Copyright © AirNav, LLC. All rights reserved. Privacy Policy  Contact